Weather History for Hoquiam, WA

Change the Weather History Date:

Sunday, April 27, 2014

  Actual Average Record
Temperature  
Mean Temperature 49 °F 50 °F  
Max Temperature 54 °F 57 °F 83 °F (1987)
Min Temperature 44 °F 43 °F 29 °F (1954)
Degree Days  
Heating Degree Days 16 15  
Month to date heating degree days 425 444  
Cooling Degree Days 0 0  
Month to date cooling degree days 0 0  
Year to date cooling degree days 0 0  
Moisture  
Dew Point 41 °F    
Average Humidity 71    
Maximum Humidity 77    
Minimum Humidity 64    
Precipitation  
Precipitation 0.07 in 0.14 in 2.23 in (1981)
Month to date precipitation 6.30 4.70  
Year to date precipitation 34.89 29.23  
Sea Level Pressure  
Sea Level Pressure 29.89 in    
Wind  
Wind Speed 16 mph (SW)    
Max Wind Speed 25 mph    
Max Gust Speed 32 mph    
Visibility 9 miles    
Events Rain    
T = Trace of Precipitation, MM = Missing Value Source: NWS Daily Summary

Daily Weather History Graph

Daily Weather History Graph

Search for Another Location

Airport:

Trip Planner

Search our weather history database for the weather conditions in past years. The results will help you decide how hot, cold, wet, or windy it might be!

Date:

Astronomy

Apr. 27, 2014 Rise Set
Actual Time 6:06 AM PDT 8:20 PM PDT
Civil Twilight 5:33 AM PDT 8:54 PM PDT
Nautical Twilight 4:51 AM PDT 9:36 PM PDT
Astronomical Twilight 4:05 AM PDT 10:23 PM PDT
Moon 5:17 AM PDT (4/27) 6:55 PM PDT (4/27)
Length of Visible Light 15h 21m
Length of Day
14h 14m
Waning Crescent, 3% of the Moon is Illuminated
Apr 27
Waning Crescent
Apr 28
New
May 6
First Quarter
May 14
Full
May 21
Last Quarter

Hourly Weather History & Observations

Time (PDT) Temp. Windchill Dew Point Humidity Pressure Visibility Wind Dir Wind Speed Gust Speed Precip Events Conditions
12:53 AM 48.0 °F - 42.1 °F 80% 29.68 in 6.0 mi WSW 11.5 mph - 0.03 in Rain Light Rain
1:53 AM 48.2 °F - 42.8 °F 82% 29.69 in 9.0 mi WSW 15.0 mph - N/A   Partly Cloudy
2:53 AM 48.0 °F - 41.0 °F 77% 29.71 in 9.0 mi WSW 18.4 mph 24.2 mph N/A   Scattered Clouds
3:53 AM 48.0 °F - 41.0 °F 77% 29.73 in 9.0 mi WSW 18.4 mph 23.0 mph 0.01 in   Scattered Clouds
4:53 AM 48.0 °F - 39.9 °F 74% 29.74 in 9.0 mi SW 17.3 mph - N/A   Mostly Cloudy
5:53 AM 46.9 °F - 39.0 °F 74% 29.76 in 10.0 mi South 17.3 mph - N/A   Scattered Clouds
6:53 AM 45.0 °F 38.2 °F 39.9 °F 82% 29.78 in 7.0 mi South 15.0 mph - 0.00 in Rain Light Rain
7:53 AM 46.9 °F - 41.0 °F 80% 29.80 in 9.0 mi South 12.7 mph - 0.00 in   Mostly Cloudy
8:19 AM 45.0 °F 36.9 °F 37.9 °F 76% 29.79 in 2.0 mi SSW 20.7 mph 29.9 mph 0.06 in Rain Light Rain
8:28 AM 46.0 °F 39.9 °F 39.0 °F 76% 29.80 in 8.0 mi SSW 13.8 mph - 0.06 in Rain Light Rain
8:40 AM 46.9 °F - 41.0 °F 80% 29.80 in 9.0 mi WSW 13.8 mph - 0.06 in   Mostly Cloudy
8:53 AM 48.2 °F - 39.2 °F 71% 29.80 in 9.0 mi WSW 16.1 mph - N/A   Mostly Cloudy
9:53 AM 50.0 °F - 42.1 °F 74% 29.84 in 9.0 mi SW 25.3 mph 29.9 mph N/A   Mostly Cloudy
10:53 AM 51.1 °F - 41.0 °F 68% 29.86 in 9.0 mi SSW 19.6 mph - N/A   Partly Cloudy
11:53 AM 53.1 °F - 42.1 °F 66% 29.88 in 9.0 mi SW 16.1 mph - N/A   Partly Cloudy
12:53 PM 53.6 °F - 42.8 °F 67% 29.89 in 9.0 mi SW 19.6 mph - N/A   Scattered Clouds
1:53 PM 53.6 °F - 42.8 °F 67% 29.91 in 9.0 mi SW 20.7 mph - N/A   Partly Cloudy
2:53 PM 54.0 °F - 43.0 °F 66% 29.95 in 9.0 mi SW 23.0 mph - 0.00 in   Mostly Cloudy
3:53 PM 53.1 °F - 41.0 °F 64% 29.97 in 9.0 mi SW 20.7 mph - N/A   Mostly Cloudy
4:53 PM 54.0 °F - 41.0 °F 62% 29.98 in 9.0 mi WSW 16.1 mph - N/A   Mostly Cloudy
5:53 PM 50.0 °F - 41.0 °F 71% 30.01 in 9.0 mi SW 17.3 mph - N/A   Mostly Cloudy
6:10 PM 51.1 °F - 41.0 °F 68% 30.00 in 9.0 mi WSW 17.3 mph 23.0 mph N/A   Mostly Cloudy
6:28 PM 51.1 °F - 42.1 °F 71% 30.01 in 9.0 mi SW 19.6 mph - N/A   Mostly Cloudy
6:53 PM 51.1 °F - 42.1 °F 71% 30.02 in 9.0 mi SW 16.1 mph - N/A   Mostly Cloudy
7:27 PM 50.0 °F - 39.0 °F 66% 30.02 in 9.0 mi WSW 15.0 mph - N/A   Scattered Clouds
7:53 PM 50.0 °F - 39.9 °F 68% 30.04 in 9.0 mi WSW 13.8 mph - N/A   Partly Cloudy
8:53 PM 48.9 °F - 39.9 °F 71% 30.06 in 10.0 mi WSW 12.7 mph - N/A   Scattered Clouds
9:53 PM 48.9 °F - 41.0 °F 74% 30.09 in 10.0 mi WSW 6.9 mph - N/A   Mostly Cloudy
10:53 PM 48.2 °F - 39.2 °F 71% 30.10 in 10.0 mi WSW 11.5 mph - N/A   Partly Cloudy
11:53 PM 48.0 °F - 41.0 °F 77% 30.13 in 9.0 mi SW 12.7 mph - N/A   Scattered Clouds